sat.trackr.live / text

‹ back to catalog

STARLINK-37516

NORAD 68915 · 2026-097W

PAYLOAD ACTIVE UNKNOWN

§ Identity

Operator
Country
US
Launch date
2026-04-30
Launch site
AFWTR
Launch vehicle
Mass (kg)
RCS (m²)

Purposes: comms

External: N2YO · Heavens-Above · Gunter

§ Orbital elements

Epoch: 2026-05-25T04:00:03.998880Z

Period
92.94 min
Inclination
97.2848°
Eccentricity
0.0002084
Mean motion
15.49390600 rev/d
Perigee alt
417.1 km
Apogee alt
419.9 km
Semi-major
6,796.6 km
B*
-9.4294e-3
RAAN
341.0269°
Arg perigee
99.2077°
Mean anomaly
105.6378°
Rev number
522

§ Raw data

STARLINK-375161 68915U 26097W   26145.16671295 -.00486037  00000+0 -94294-2 0  99972 68915  97.2848 341.0269 0002084  99.2077 105.6378 15.49390600  5228

JSON: /api/v1/satellites/68915 · /tle

For live sub-satellite position, see the globe view (requires WebGL).

§ Visibility from observer

Set your observer location to see the next 7 days of passes ≥ 10°. The values pass through the URL so the page stays shareable.

No JS? Fill the form by hand. The geolocation button needs JavaScript.